| time (UTC) | temp C | wind direction | speed KPH | gust KPH | rain 1hr cm | rain 24hr cm | rain mn cm | humidity % | barometer mb |
| 20260502234221 | 9 | 0 | 0.0 | 0.0 | 0.00 | 0.13 | 0.13 | 97 | 1008.8 |
| 20260502233321 | 9 | 0 | 0.0 | 0.0 | 0.00 | 0.13 | 0.13 | 97 | 1008.7 |
| 20260502232421 | 9 | 0 | 0.0 | 0.0 | 0.00 | 0.13 | 0.13 | 97 | 1008.7 |
| 20260502231521 | 9 | 0 | 0.0 | 0.0 | 0.00 | 0.13 | 0.13 | 97 | 1008.8 |
| 20260502230621 | 10 | 0 | 0.0 | 0.0 | 0.03 | 0.13 | 0.13 | 97 | 1008.7 |
| 20260502224821 | 10 | 0 | 0.0 | 0.0 | 0.05 | 0.13 | 0.13 | 97 | 1008.6 |
| 20260502223921 | 9 | 0 | 0.0 | 0.0 | 0.05 | 0.13 | 0.13 | 96 | 1008.6 |
| 20260502222121 | 10 | 0 | 0.0 | 0.0 | 0.05 | 0.13 | 0.13 | 95 | 1008.7 |
| 20260502221221 | 10 | 0 | 0.0 | 0.0 | 0.03 | 0.10 | 0.10 | 95 | 1008.7 |
| 20260502215421 | 10 | 0 | 0.0 | 0.0 | 0.00 | 0.08 | 0.08 | 93 | 1008.9 |
| 20260502214521 | 10 | 314 | 0.0 | 3.2 | 0.00 | 0.08 | 0.08 | 92 | 1008.9 |
| 20260502213621 | 10 | 313 | 0.0 | 3.2 | 0.00 | 0.08 | 0.08 | 90 | 1008.9 |
| 20260502212721 | 11 | 311 | 1.6 | 4.8 | 0.00 | 0.08 | 0.08 | 88 | 1008.9 |
| 20260502210922 | 12 | 336 | 1.6 | 4.8 | 0.00 | 0.08 | 0.08 | 82 | 1008.7 |
| 20260502210021 | 12 | 159 | 1.6 | 6.4 | 0.00 | 0.08 | 0.08 | 82 | 1008.5 |
| 20260502205121 | 12 | 145 | 3.2 | 9.7 | 0.00 | 0.08 | 0.08 | 82 | 1008.4 |
| 20260502203321 | 12 | 153 | 3.2 | 11.3 | 0.00 | 0.08 | 0.08 | 79 | 1008.4 |
| 20260502202421 | 12 | 201 | 0.0 | 8.0 | 0.00 | 0.08 | 0.08 | 78 | 1008.5 |
| 20260502201521 | 12 | 227 | 3.2 | 8.0 | 0.00 | 0.08 | 0.08 | 75 | 1008.5 |
| 20260502200621 | 12 | 252 | 3.2 | 8.0 | 0.00 | 0.08 | 0.08 | 76 | 1008.7 |
| 20260502195721 | 13 | 224 | 3.2 | 8.0 | 0.00 | 0.08 | 0.08 | 74 | 1008.5 |
| 20260502194820 | 13 | 164 | 1.6 | 9.7 | 0.00 | 0.08 | 0.08 | 77 | 1008.7 |
| 20260502193921 | 12 | 230 | 1.6 | 8.0 | 0.00 | 0.08 | 0.08 | 78 | 1008.8 |
| 20260502193021 | 12 | 231 | 1.6 | 6.4 | 0.00 | 0.08 | 0.08 | 79 | 1009.0 |
| 20260502192120 | 12 | 224 | 3.2 | 9.7 | 0.00 | 0.08 | 0.08 | 77 | 1009.2 |
| 20260502191220 | 12 | 192 | 1.6 | 8.0 | 0.00 | 0.08 | 0.08 | 81 | 1009.3 |
| 20260502190320 | 12 | 223 | 3.2 | 11.3 | 0.00 | 0.08 | 0.08 | 78 | 1009.4 |
| 20260502185421 | 12 | 235 | 3.2 | 9.7 | 0.00 | 0.08 | 0.08 | 83 | 1009.3 |
| 20260502184521 | 11 | 166 | 3.2 | 9.7 | 0.00 | 0.08 | 0.08 | 91 | 1009.3 |
| 20260502183620 | 11 | 181 | 1.6 | 6.4 | 0.00 | 0.08 | 0.08 | 94 | 1009.5 |
| 20260502182721 | 10 | 254 | 1.6 | 6.4 | 0.03 | 0.08 | 0.08 | 94 | 1009.3 |
| 20260502181821 | 10 | 236 | 1.6 | 9.7 | 0.05 | 0.08 | 0.08 | 93 | 1009.4 |
| 20260502180920 | 10 | 304 | 0.0 | 3.2 | 0.05 | 0.08 | 0.08 | 95 | 1009.4 |
| 20260502163920 | 11 | 240 | 1.6 | 6.4 | 0.00 | 0.03 | 0.03 | 75 | 1010.0 |
| 20260502163022 | 12 | 219 | 3.2 | 12.9 | 0.00 | 0.03 | 0.03 | 74 | 1010.0 |
| 20260502162120 | 12 | 251 | 1.6 | 4.8 | 0.00 | 0.03 | 0.03 | 77 | 1009.8 |
| 20260502160320 | 12 | 246 | 1.6 | 12.9 | 0.00 | 0.03 | 0.03 | 78 | 1010.0 |
| 20260502151820 | 12 | 120 | 1.6 | 11.3 | 0.00 | 0.03 | 0.03 | 82 | 1010.4 |
| 20260502150920 | 12 | 188 | 0.0 | 4.8 | 0.00 | 0.03 | 0.03 | 85 | 1010.5 |
| 20260502130320 | 9 | 292 | 0.0 | 1.6 | 0.03 | 0.03 | 0.03 | 93 | 1011.2 |
| 20260502123620 | 10 | 292 | 0.0 | 4.8 | 0.00 | 0.00 | 0.00 | 90 | 1011.5 |
| 20260502122720 | 10 | 292 | 1.6 | 4.8 | 0.00 | 0.00 | 0.00 | 90 | 1011.5 |
| 20260502121820 | 10 | 299 | 1.6 | 6.4 | 0.00 | 0.00 | 0.00 | 90 | 1011.3 |
| 20260502120920 | 9 | 310 | 1.6 | 4.8 | 0.00 | 0.00 | 0.00 | 89 | 1011.0 |
| 20260502115120 | 9 | 351 | 0.0 | 1.6 | 0.00 | 0.00 | 0.00 | 91 | 1010.6 |
| 20260502114220 | 9 | 351 | 0.0 | 1.6 | 0.00 | 0.00 | 0.00 | 91 | 1010.6 |
| 20260502113320 | 8 | 0 | 0.0 | 0.0 | 0.00 | 0.00 | 0.00 | 91 | 1010.4 |
| 20260502112420 | 8 | 0 | 0.0 | 0.0 | 0.00 | 0.00 | 0.00 | 91 | 1010.4 |
| 20260502111520 | 8 | 0 | 0.0 | 0.0 | 0.00 | 0.00 | 0.00 | 90 | 1010.5 |
| 20260502110620 | 8 | 351 | 0.0 | 1.6 | 0.00 | 0.00 | 0.00 | 91 | 1010.5 |
| 20260502105720 | 8 | 0 | 0.0 | 0.0 | 0.00 | 0.00 | 0.00 | 91 | 1010.5 |
| 20260502104820 | 8 | 351 | 0.0 | 1.6 | 0.00 | 0.00 | 0.00 | 91 | 1010.4 |
| 20260502103920 | 8 | 0 | 0.0 | 0.0 | 0.00 | 0.00 | 0.00 | 93 | 1010.3 |
| 20260502103020 | 8 | 267 | 0.0 | 3.2 | 0.00 | 0.00 | 0.00 | 92 | 1010.3 |
| 20260502102120 | 8 | 266 | 0.0 | 3.2 | 0.00 | 0.00 | 0.00 | 91 | 1010.2 |
| 20260502101220 | 8 | 0 | 0.0 | 0.0 | 0.00 | 0.00 | 0.00 | 92 | 1010.0 |
| 20260502100320 | 8 | 269 | 0.0 | 3.2 | 0.00 | 0.00 | 0.00 | 93 | 1010.0 |
| 20260502071220 | 9 | 0 | 0.0 | 0.0 | 0.00 | 0.00 | 0.00 | 82 | 1010.0 |
| 20260502070320 | 9 | 309 | 0.0 | 3.2 | 0.00 | 0.00 | 0.00 | 82 | 1009.9 |
| 20260502065420 | 9 | 310 | 0.0 | 1.6 | 0.00 | 0.00 | 0.00 | 80 | 1010.1 |
| 20260502064520 | 9 | 310 | 0.0 | 3.2 | 0.00 | 0.00 | 0.00 | 81 | 1010.2 |
| 20260502063620 | 9 | 0 | 0.0 | 0.0 | 0.00 | 0.00 | 0.00 | 81 | 1010.3 |
| 20260502062720 | 9 | 310 | 0.0 | 3.2 | 0.00 | 0.00 | 0.00 | 81 | 1010.2 |
| 20260502061820 | 9 | 0 | 0.0 | 0.0 | 0.00 | 0.00 | 0.00 | 81 | 1010.1 |
| 20260502060920 | 9 | 0 | 0.0 | 0.0 | 0.00 | 0.00 | 0.00 | 80 | 1010.0 |
| 20260502060020 | 9 | 0 | 0.0 | 0.0 | 0.00 | 0.00 | 0.00 | 80 | 1010.1 |
| 20260502054220 | 9 | 0 | 0.0 | 0.0 | 0.00 | 0.00 | 0.00 | 78 | 1010.2 |
| 20260502053320 | 9 | 0 | 0.0 | 0.0 | 0.00 | 0.00 | 0.00 | 77 | 1010.3 |
| 20260502050620 | 9 | 0 | 0.0 | 0.0 | 0.00 | 0.00 | 0.00 | 77 | 1010.2 |
| 20260502045720 | 9 | 0 | 0.0 | 0.0 | 0.00 | 0.00 | 0.00 | 77 | 1010.1 |
| 20260502044820 | 9 | 0 | 0.0 | 0.0 | 0.00 | 0.00 | 0.00 | 75 | 1010.2 |
| 20260502042120 | 9 | 0 | 0.0 | 0.0 | 0.00 | 0.00 | 0.00 | 75 | 1010.3 |
| 20260502040320 | 9 | 0 | 0.0 | 0.0 | 0.00 | 0.00 | 0.00 | 74 | 1010.3 |
| 20260502035420 | 8 | 0 | 0.0 | 0.0 | 0.00 | 0.00 | 0.00 | 74 | 1010.3 |
| 20260502034520 | 8 | 0 | 0.0 | 0.0 | 0.00 | 0.00 | 0.00 | 74 | 1010.3 |
| 20260502033620 | 8 | 0 | 0.0 | 0.0 | 0.00 | 0.00 | 0.00 | 74 | 1010.3 |
| 20260502032720 | 8 | 0 | 0.0 | 0.0 | 0.00 | 0.00 | 0.00 | 75 | 1010.4 |
| 20260502031820 | 8 | 0 | 0.0 | 0.0 | 0.00 | 0.00 | 0.00 | 75 | 1010.3 |
| 20260502030920 | 8 | 0 | 0.0 | 0.0 | 0.00 | 0.00 | 0.00 | 75 | 1010.3 |
| 20260502025120 | 8 | 0 | 0.0 | 0.0 | 0.00 | 0.00 | 0.00 | 75 | 1010.2 |
| 20260502024220 | 7 | 0 | 0.0 | 0.0 | 0.00 | 0.00 | 0.00 | 78 | 1010.2 |
| 20260502023320 | 7 | 310 | 0.0 | 3.2 | 0.00 | 0.00 | 0.00 | 78 | 1010.2 |
| 20260502022420 | 7 | 310 | 0.0 | 3.2 | 0.00 | 0.00 | 0.00 | 78 | 1010.2 |
| 20260502021520 | 8 | 0 | 0.0 | 0.0 | 0.00 | 0.00 | 0.00 | 76 | 1010.0 |
| 20260502020620 | 8 | 0 | 0.0 | 0.0 | 0.00 | 0.00 | 0.00 | 74 | 1009.9 |
| 20260502015720 | 8 | 0 | 0.0 | 0.0 | 0.00 | 0.00 | 0.00 | 74 | 1009.9 |
| 20260502014820 | 8 | 0 | 0.0 | 0.0 | 0.00 | 0.00 | 0.00 | 72 | 1009.8 |
| 20260502013020 | 9 | 0 | 0.0 | 0.0 | 0.00 | 0.00 | 0.00 | 69 | 1009.8 |
| 20260502012119 | 10 | 0 | 0.0 | 0.0 | 0.00 | 0.00 | 0.00 | 67 | 1009.7 |
| 20260502010320 | 10 | 0 | 0.0 | 0.0 | 0.00 | 0.00 | 0.00 | 65 | 1009.6 |
| 20260502005420 | 11 | 0 | 0.0 | 0.0 | 0.00 | 0.00 | 0.00 | 62 | 1009.5 |
| 20260502004520 | 11 | 0 | 0.0 | 0.0 | 0.00 | 0.00 | 0.00 | 61 | 1009.5 |
| 20260502003619 | 12 | 0 | 0.0 | 0.0 | 0.00 | 0.00 | 0.00 | 58 | 1009.3 |
| 20260502002720 | 12 | 0 | 0.0 | 0.0 | 0.00 | 0.00 | 0.00 | 58 | 1009.2 |
| 20260502001820 | 13 | 0 | 0.0 | 0.0 | 0.00 | 0.00 | 0.00 | 53 | 1009.0 |
| 20260502000920 | 13 | 0 | 0.0 | 0.0 | 0.00 | 0.00 | 0.00 | 51 | 1008.9 |